#timestamp,LO_Frequency,Hit,StdDev 
1622271615.8,286046994.1,P
1622271635.6,286046996.4,N
1622271655.5,286046996.0,N
1622271675.3,286046996.7,N
1622271695.2,286046997.6,N
1622271715.9,286046995.1,Y
1622271735.7,286046999.5,P
1622271755.6,286046999.3,N
1622271775.4,286047001.1,N
1622271795.2,286047003.9,N
1622271815.1,286047006.0,N
1622271816.0,286047006.0,N
1622271835.8,286047004.6,N
1622271855.7,286047006.4,N
1622271875.5,286047006.5,N
1622271895.3,286047005.7,N
1622271915.2,286047004.2,N
1622271935.0,286046999.7,N
1622271935.9,286046999.7,N
1622271985.8,286047000.4,E
1622271995.7,286046998.2,N
1622272015.5,286046995.4,P
1622272035.4,286046999.6,N
1622272055.2,286047000.6,N
1622272075.0,286047003.2,N
1622272076.0,286047003.2,N
1622272095.8,286047003.1,N
1622272115.6,286047003.7,N
1622272135.5,286047003.7,N
1622272155.3,286047007.6,N
1622272175.1,286047005.8,N
1622272195.9,286047003.9,N
1622272215.7,286047004.1,N
1622272235.6,286047004.3,N
1622272255.4,286047003.0,N
1622272275.2,286046999.8,N
1622272295.1,286047000.9,N
1622272296.0,286047000.9,N
1622272315.8,286047000.7,N
1622272335.6,286046999.9,N
1622272355.5,286046999.8,N
1622272375.3,286047004.0,N
1622272395.2,286047004.1,N
1622272415.9,286047001.9,N
1622272435.7,286047002.2,N
1622272455.6,286047004.4,N
1622272475.4,286047002.0,N
1622272495.2,286047003.2,N
1622272515.1,286047005.7,N
1622272516.0,286047005.7,N
1622272535.8,286047005.5,N
1622272555.7,286047007.6,Y
1622272575.5,286047004.1,P
1622272595.3,286047004.0,P
1622272615.2,286047001.6,N
1622272635.0,286047001.9,N
1622272635.9,286047001.9,N
1622272655.7,286047002.5,N
1622272675.6,286047001.8,N
1622272695.4,286046998.3,N
1622272715.3,286047001.1,N
1622272735.1,286047000.4,N
1622272736.0,286047000.4,N
1622272755.8,286047000.6,N
1622272775.4,286047002.5,N
1622272795.2,286047000.8,N
1622272815.1,286046996.5,N
1622272816.0,286046996.5,N
1622272835.8,286046998.0,N
1622272855.6,286047000.4,N
1622272875.5,286047001.6,N
1622272895.3,286047000.1,N
1622272915.1,286047002.8,N
1622272935.9,286047003.1,N
1622272955.7,286047003.6,N
1622272975.6,286047003.7,N
1622272995.4,286047004.2,N
1622273015.2,286047004.2,N
1622273035.1,286047002.8,N
1622273036.0,286047002.8,N
1622273055.8,286046998.4,N
1622273075.7,286046997.9,N
1622273095.5,286047000.7,N
1622273115.3,286047000.0,N
1622273135.2,286047002.6,N
1622273155.9,286047002.6,N
1622273175.7,286047002.2,N
1622273195.6,286046998.7,N
1622273215.4,286047001.2,N
1622273235.3,286047000.2,N
1622273255.1,286046999.7,N
1622273256.0,286046999.7,N
1622273275.8,286047001.4,N
1622273295.7,286047001.5,N
1622273315.5,286047002.4,N
1622273335.3,286047001.9,N
1622273355.2,286047002.8,N
1622273375.0,286046999.8,N
1622273375.9,286046999.8,N
1622273395.8,286047000.3,N
1622273415.6,286046999.9,N
1622273435.4,286046998.9,N
1622273455.3,286046999.3,N
1622273475.1,286046998.8,N
1622273495.8,286046999.0,N
1622273515.7,286046998.4,N
1622273535.5,286047000.6,N
1622273555.4,286047002.3,N
1622273575.2,286047002.4,N
1622273595.0,286047000.0,N
1622273595.9,286047000.0,N
1622273615.8,286047000.2,N
1622273635.6,286047001.1,N
1622273655.4,286047002.7,N
1622273675.3,286046998.3,N
1622273695.1,286047000.9,N
1622273715.9,286046998.5,N
1622273735.7,286046998.0,N
1622273755.5,286046996.2,N
1622273775.4,286046995.0,Y
1622273795.2,286046997.1,P
1622273815.0,286046999.7,N
1622273815.9,286046999.7,N
1622273835.8,286047002.7,N
1622273855.6,286047001.6,N
1622273875.5,286047000.2,N
1622273895.3,286046998.8,N
1622273915.1,286047000.5,N
1622273935.9,286046999.7,N
1622273955.7,286046999.9,N
1622273975.5,286046998.1,N
1622273995.4,286046998.6,N
1622274015.8,286046998.4,N
1622274035.7,286046998.2,N
1622274055.5,286047000.8,N
1622274075.3,286047002.8,N
1622274095.2,286046999.2,N
1622274115.0,286047000.3,N
1622274115.9,286047000.3,N
1622274135.8,286047000.9,N
1622274155.6,286046999.8,N
1622274175.4,286047001.4,N
1622274195.3,286047003.0,N
1622274215.1,286047004.0,N
1622274235.9,286046999.7,N
1622274255.7,286047001.5,N
1622274275.5,286047003.5,N
1622274295.4,286047000.8,N
1622274315.2,286046996.5,N
1622274335.1,286046995.1,N
1622274336.0,286046995.1,N
1622274355.8,286046996.1,N
1622274375.6,286046994.3,N
1622274395.5,286046999.5,N
1622274415.3,286046995.4,N
1622274435.2,286046997.9,N
1622274455.0,286046997.4,N
1622274455.9,286046997.4,N
1622274475.7,286046998.4,N
1622274495.6,286046999.3,N
1622274515.4,286047000.3,N
1622274535.3,286047002.6,N
1622274555.1,286046996.7,N
1622274575.9,286046995.6,N
1622274595.7,286046997.6,N
1622274615.5,286046999.6,N
1622274635.4,286046999.3,N
1622274655.2,286047000.0,N
1622274675.1,286047000.3,N
1622274676.0,286047000.3,N
1622274695.8,286047002.7,N
1622274715.6,286046998.6,N
1622274735.5,286046998.4,N
1622274755.3,286046998.4,N
1622274775.1,286047002.8,N
1622274795.9,286046999.0,N
1622274815.7,286046999.5,N
1622274835.6,286046995.0,N
1622274855.4,286046995.5,N
1622274875.2,286046995.3,N
1622274895.1,286046997.8,N
1622274896.0,286046997.8,N
1622274915.8,286046995.6,N
1622274935.6,286046995.5,N
1622274955.5,286046996.4,N
1622274975.3,286046994.5,N
1622274995.2,286046993.0,Y
1622275015.9,286046994.1,P
1622275035.7,286046993.8,N
1622275055.6,286046993.7,P
1622275075.4,286046993.5,Y
1622275095.3,286047002.3,P
1622275115.1,286047003.9,N
1622275116.0,286047003.9,N
1622275135.8,286047004.4,N
1622275155.7,286047001.9,N
1622275175.5,286047003.9,N
1622275195.3,286047001.7,N
